Printer-friendly version
Follow the MPC on Twitter Follow the MPC on Facebook The MPC blog
Minor Planet Center

MPEC 2010-R08 : 2010 RD

The following Minor Planet Electronic Circular may be linked-to from your own Web pages, but must not otherwise be redistributed electronically.

A form allowing access to any MPEC is at the bottom of this page.


Read MPEC 2010-R07 Read MPEC 2010-R09


M.P.E.C. 2010-R08                                Issued 2010 Sept. 2, 13:00 UT

     The Minor Planet Electronic Circulars contain information on unusual
         minor planets and routine data on comets.  They are published
   on behalf of Commission 20 of the International Astronomical Union by the
          Minor Planet Center, Smithsonian Astrophysical Observatory,
                          Cambridge, MA 02138, U.S.A.

             Prepared using the Tamkin Foundation Computer Network

                              MPC@CFA.HARVARD.EDU
       URL http://www.minorplanetcenter.org/iau/mpc.html  ISSN 1523-6714

                                    2010 RD

Observations:
     K10R00D* C2010 09 01.38085 22 39 53.13 -07 25 58.6          21.3 V ER008G96
     K10R00D  C2010 09 01.38143 22 39 53.10 -07 25 56.8          21.1 V ER008G96
     K10R00D  C2010 09 01.38203 22 39 53.06 -07 25 55.3          21.3 V ER008G96
     K10R00D  C2010 09 01.38260 22 39 53.10 -07 25 54.3          21.1 V ER008G96
     K10R00D  C2010 09 01.38968 22 39 52.81 -07 25 36.8          21.0 V ER008G96
     K10R00D  C2010 09 01.39573 22 39 52.59 -07 25 21.7          21.4 V ER008G96
     K10R00D  C2010 09 01.40095 22 39 52.45 -07 25 10.1          20.8 V ER008G96
     K10R00D  C2010 09 01.45515 22 39 50.61 -07 22 54.8          21.4 V ER008G96
     K10R00D  C2010 09 02.22553 22 39 46.33 -06 50 54.7          20.5 V ER008G96
     K10R00D  C2010 09 02.23865 22 39 45.79 -06 50 21.8          21.1 V ER008G96
     K10R00D  C2010 09 02.24525 22 39 45.57 -06 50 04.9          21.1 V ER008G96

Observer details:
G96 Mt. Lemmon Survey.  Observers A. R. Gibbs, A. Boattini.  Measurers
    J. D. Ahern, E. C. Beshore, A. Boattini, G. J. Garradd, A. R. Gibbs,
    A. D. Grauer, R. E. Hill, R. A. Kowalski, S. M. Larson, R. H. McNaught.
    1.5-m reflector + CCD.

Orbital elements:
2010 RD                                                  Earth MOID = 0.0517 AU
Epoch 2010 July 23.0 TT = JDT 2455400.5                 MPC
M 304.42814              (2000.0)            P               Q
n   0.58477196     Peri.   57.06702     +0.82433906     -0.56544809
a   1.4162666      Node   337.33042     +0.49309521     +0.74071518
e   0.2839481      Incl.    4.02970     +0.27806875     +0.36278021
P   1.69           H   25.5           G   0.15           U   9
Residuals in seconds of arc
100901 G96  0.1-  0.1-    100901 G96  0.0   0.0     100902 G96  0.1+  0.1+
100901 G96  0.3-  0.3+    100901 G96  0.0   0.3+    100902 G96  0.4-  0.2-
100901 G96  0.5-  0.3+    100901 G96  0.7+  1.0-    100902 G96  0.3+  0.0
100901 G96  0.4+  0.1-    100901 G96  0.2-  0.2+

Ephemeris:
2010 RD                  a,e,i = 1.42, 0.28, 4                   q = 1.0141
Date    TT    R. A. (2000) Decl.     Delta      r     Elong.  Phase     V
2010 09 01    22 40.00   -07 40.5    0.115    1.124   179.2     0.7    21.2
2010 09 11    22 37.61   +01 14.2    0.0850   1.090   168.7    10.4    21.0
2010 09 21    22 37.10   +16 51.9    0.0635   1.062   154.4    24.1    20.8
2010 10 01    22 44.29   +41 19.9    0.0522   1.039   135.2    42.8    20.8
2010 10 11    23 21.12   +68 21.9    0.0534   1.023   116.1    61.2    21.4
2010 10 21    04 15.23   +83 14.0    0.0642   1.015   105.8    70.7    22.0

Sonia Keys                   (C) Copyright 2010 MPC           M.P.E.C. 2010-R08

Read MPEC 2010-R07 Read MPEC 2010-R09


MPEC number:

Enter an MPEC number in one of the following forms:

  • 1997-B01 (the full form)
  • J97B01 (the packed version of the full form)
  • B01 (the abbreviated form)

Valid HTML 4.01!